Simultaneous Nadir Overpasses (SNOs) Predictions

Prediction of SNOs between GOES-16 and NPP Satellite Orbit:

Table of predicted SNOs for the next 14.0 days since TLE Epoch: 2/1/2019
Index Date Time (GOES-16) GOES-16 Lat,Lon NPP Lat,Lon Distance(km) Time Diff (sec)
1 02/02/2019 06:45:03 0.01, -75.18 0.97, -79.56 498.50 80
2 02/03/2019 06:23:38 0.01, -75.18 -0.02, -75.02 17.51 80
3 02/05/2019 18:26:49 -0.01, -75.18 -0.14, -75.80 69.96 80
4 02/06/2019 18:10:43 -0.00, -75.18 0.85, -71.26 446.67 80
5 02/08/2019 06:32:30 0.00, -75.18 0.33, -76.53 154.03 80
6 02/09/2019 06:11:06 0.00, -75.18 -0.72, -72.00 362.91 80
7 02/10/2019 18:35:41 -0.00, -75.20 -0.48, -77.30 239.68 80
8 02/11/2019 18:14:17 0.00, -75.20 0.57, -72.77 277.59 80
9 02/13/2019 06:38:44 0.00, -75.21 0.61, -78.04 322.24 80
10 02/14/2019 06:17:19 0.00, -75.22 -0.38, -73.50 195.06 80
11 02/15/2019 18:39:14 -0.01, -75.23 -0.82, -78.80 407.28 80




NCC Satellite Simultaneous Nadir Overpasses (SNOs) Prediction Service
